DECAYED

STARLINK-2332, 47876 (Decayed)

Orbit data source: Space-Track

STARLINK-2332, 47876 was a payload satellite owned by SpaceX/Seattle (US) in LEO that was launched on Sun, 14 Mar 2021 UTC via an FALCON 9 launch vehicle from the Air Force Eastern Test Range (AFETR). Payload-class satellites include a variety of spacecraft equipped with specific instruments for various scientific and technological missions. These include communications satellites like Starlink; space stations such as the ISS; scientific satellites like the Hubble; Earth observation satellites from companies like Planet Labs, Umbra, and HawkEye 360; GPS; miniature CubeSats for education and research; and military/defense satellites.

Not visible in the next 10 days
Identifier
47876, 2021-021S
Orbit
Decayed
Country
Flag of USUS
Related business
Manufacturer
SpaceX/Seattle
Mission
Decayed Commercial Communications
Bus & Motor
STARLINK, Unknown motor
Mass
260 kg wet, ~248 kg dry
Launch date (UTC)
2021-03-14 (5 years ago)
Launch vehicle
FALCON 9
Launch site
Air Force Eastern Test Range (AFETR)
Object type
Payload
Rocket body
Debris
Shape & HBR
Box + 1 Pan, 10.1 m
Radar Cross Section
13.562 m², Large (>1 m²)

Expand to show TLE details & history
Last TLE update: 1 year ago

TLE from 1 year ago
0 STARLINK-2332
1 47876U 21021S   25048.79061936  .17451446  12469-4  55708-3 0  9994
2 47876  53.0250 153.4428 0005319 256.5404 245.5922 16.44612550218330
Epoch: 2025-02-17T18:58Z
TLE epoch observation values (Epoch: 2025-02-17T18:58:29.512Z)
Latitude
29.5017°
Longitude
-124.24191°
Altitude
156.608 km
Speed
7.816 km/s
True Right ascension
20h 33m 32s
True Declination
29° 20' 28"
Sunlit
Object was in daylight at epoch
Visualization orbit readout
Latitude
Unknown
Longitude
Unknown
Altitude
Unknown
Speed
Unknown
Apparent Right ascension
Unknown
Apparent Declination
Unknown
Sunlit
N/A
Visualization observer readout
Local Sidereal Time
21:23:57
Azimuth
Unknown
Elevation
Unknown
Doppler factor
Unknown
Orbital elements
Apogee altitude
157.327 km
Perigee altitude
150.378 km
Semi-major axis
6,531.99 km
Eccentricity
0.00053
Inclination
53.025°
RAAN
153.4428°
Arg. of periapsis
256.5404°
True anomaly
245.53671°
Mean anomaly
245.5922°
Eccentric anomaly
245.56445°
Mean motion
4.11126 °/min
Orbital period
87.56 mins
BSTAR
0.00055708
Loading maneuver chart data...
Computing Atmospheric mass density...

Documentation

Showing up to 5 results
|